TimeAST,TemperatureF,Dew PointF,Humidity,Sea Level PressureIn,VisibilityMPH,Wind Direction,Wind SpeedMPH,Gust SpeedMPH,PrecipitationIn,Events,Conditions,WindDirDegrees,DateUTC
12:00 AM,82.4,75.2,79,29.92,6.2,East,10.4,-,N/A,,Partly Cloudy,100,2012-10-04 04:00:00
1:00 AM,82.4,75.2,79,29.89,6.2,East,11.5,-,N/A,,Scattered Clouds,100,2012-10-04 05:00:00
2:00 AM,81,76,80,29.88,19,East,9.2,,,,Partly Cloudy,100,2012-10-04 06:00:00
2:00 AM,80.6,75.2,84,29.86,6.2,East,9.2,-,N/A,,Partly Cloudy,100,2012-10-04 06:00:00
3:00 AM,80.6,75.2,84,29.86,6.2,East,10.4,-,N/A,,Partly Cloudy,100,2012-10-04 07:00:00
4:00 AM,80.6,75.2,84,29.89,6.2,East,11.5,-,N/A,,Scattered Clouds,100,2012-10-04 08:00:00
5:00 AM,81,75,78,29.91,19,ESE,11.5,,,,Partly Cloudy,110,2012-10-04 09:00:00
5:00 AM,80.6,75.2,84,29.89,6.2,ESE,11.5,-,N/A,,Scattered Clouds,110,2012-10-04 09:00:00
6:00 AM,80.6,73.4,79,29.89,6.2,ESE,8.1,-,N/A,,Partly Cloudy,110,2012-10-04 10:00:00
7:00 AM,82.4,75.2,79,29.92,6.2,ESE,8.1,-,N/A,,Partly Cloudy,120,2012-10-04 11:00:00
8:00 AM,85,75,66,29.93,22,ESE,10.4,,,,Scattered Clouds,110,2012-10-04 12:00:00
8:00 AM,84.2,75.2,74,29.92,6.2,ESE,10.4,-,N/A,,Partly Cloudy,110,2012-10-04 12:00:00
9:00 AM,86.0,77.0,74,29.92,6.2,East,9.2,-,N/A,,Partly Cloudy,100,2012-10-04 13:00:00
10:00 AM,87.8,75.2,66,29.92,6.2,East,10.4,-,N/A,,Partly Cloudy,100,2012-10-04 14:00:00
11:00 AM,89,76,58,29.94,22,East,9.2,,,,Scattered Clouds,90,2012-10-04 15:00:00
11:00 AM,87.8,75.2,66,29.92,6.2,East,9.2,-,N/A,,Partly Cloudy,90,2012-10-04 15:00:00
12:00 PM,87.8,77.0,70,29.92,6.2,East,10.4,-,N/A,,Scattered Clouds,80,2012-10-04 16:00:00
1:00 PM,89.6,77.0,66,29.89,6.2,ENE,9.2,-,N/A,,Mostly Cloudy,60,2012-10-04 17:00:00
2:00 PM,86,74,61,29.86,19,East,10.4,,,,Partly Cloudy,80,2012-10-04 18:00:00
2:00 PM,86.0,73.4,66,29.86,6.2,East,10.4,-,N/A,,Scattered Clouds,80,2012-10-04 18:00:00
3:00 PM,87.8,75.2,66,29.83,6.2,East,11.5,-,N/A,,Scattered Clouds,80,2012-10-04 19:00:00
4:00 PM,86.0,73.4,66,29.83,6.2,ENE,12.7,-,N/A,,Partly Cloudy,70,2012-10-04 20:00:00
5:00 PM,85,77,71,29.81,22,ENE,9.2,,,,Scattered Clouds,60,2012-10-04 21:00:00
5:00 PM,86.0,77.0,74,29.80,6.2,ENE,9.2,-,N/A,,Partly Cloudy,60,2012-10-04 21:00:00
6:00 PM,84.2,77.0,79,29.80,6.2,ENE,11.5,-,N/A,,Partly Cloudy,70,2012-10-04 22:00:00
7:00 PM,82.4,77.0,84,29.80,6.2,ENE,11.5,-,N/A,,Partly Cloudy,70,2012-10-04 23:00:00
8:00 PM,82,77,81,29.84,22,East,9.2,,,,Scattered Clouds,80,2012-10-05 00:00:00
8:00 PM,82.4,77.0,84,29.83,6.2,East,9.2,-,N/A,,Partly Cloudy,80,2012-10-05 00:00:00
9:00 PM,82.4,77.0,84,29.86,6.2,East,11.5,-,N/A,,Partly Cloudy,90,2012-10-05 01:00:00
10:00 PM,82.4,77.0,84,29.86,6.2,East,9.2,-,N/A,,Partly Cloudy,90,2012-10-05 02:00:00
11:00 PM,82,77,80,29.88,22,East,8.1,,,,Scattered Clouds,90,2012-10-05 03:00:00
11:00 PM,82.4,77.0,84,29.86,6.2,East,8.1,-,N/A,,Partly Cloudy,90,2012-10-05 03:00:00